Regional Weather Roundup
Issued by NWS

Home | Current Version | Previous Version | Graphics & Text | Print | Product List | Glossary On
Versions: 1 2 3 4 5 6 7 8 9 10 11 12 13 14 15 16 17 18 19 20 21 22 23 24 25 26 27 28 29 30 31 32 33 34 35 36 37 38 39 40 41 42 43 44 45 46 47 48 49 50
000
ASUS43 KLOT 022312
RWRIL

ILLINOIS REGIONAL WEATHER ROUNDUP
NATIONAL WEATHER SERVICE CHICAGO/ROMEOVILLE IL
600 PM CDT SUN AUG 02 2015

NOTE: "FAIR" INDICATES FEW OR NO CLOUDS BELOW 12,000 FEET WITH NO
SIGNIFICANT WEATHER AND/OR OBSTRUCTIONS TO VISIBILITY.

* THESE STATIONS ARE NOT UNDER NWS QUALITY CONTROL. THEY ALSO MAY NOT
  REPORT WEATHER SUCH AS PRECIPITATION OR FOG.

ILZ001-002-007-009-015-016-024-030000-
NORTHWEST ILLINOIS

CITY           SKY/WX    TMP DP  RH WIND       PRES   REMARKS
MOLINE         SUNNY     90  73  57 SW15G24   29.72F HX  98
STERLING*      MOSUNNY   88  73  62 W15G26    29.68F HX  96
SAVANNA*       SUNNY     89  72  56 SW16G24   29.68F HX  96
$$

ILZ003-004-008-010-011-017-018-030000-
NORTH CENTRAL ILLINOIS

CITY           SKY/WX    TMP DP  RH WIND       PRES   REMARKS
ROCKFORD       MOSUNNY   88  71  57 SW22G31   29.68S HX  94
FREEPORT*      MOSUNNY   86  73  64 SW16G29   29.70S HX  93
ROCHELLE*      PTSUNNY   86  72  62 SW18G30   29.70S HX  92
DE KALB*       MOSUNNY   87  73  64 SW21G28   29.69F HX  94
PERU*          SUNNY     88  68  51 SW18G28   29.72F HX  91
$$

ILZ005-006-012>014-019>023-030000-
NORTHEAST ILLINOIS

CITY           SKY/WX    TMP DP  RH WIND       PRES   REMARKS
CHICAGO-OHARE  MOSUNNY   89  69  51 SW16G32   29.65F HX  93
CHICAGO-MIDWAY MOSUNNY   92  68  45 SW24G35   29.67F HX  96
AURORA         SUNNY     89  70  53 SW24G31   29.69F HX  94
LANSING*       SUNNY     88  68  52 SW20G31   29.70F HX  92
JOLIET*        SUNNY     90  72  56 SW17G26   29.71S HX  97
WAUKEGAN       SUNNY     88  69  53 SW23G36   29.62S HX  92
DUPAGE AIRPORT SUNNY     88  70  55 SW26G38   29.67F HX  93
KANKAKEE*      SUNNY     87  72  61 SW16G26   29.75F HX  93
WHEELING       SUNNY     90  67  46 SW21G39   29.64F HX  93
MORRIS*        SUNNY     88  70  55 SW22G33   29.70F HX  92
ROMEOVILLE*    MOSUNNY   88  67  50 SW16G33   29.70F HX  91
NORTHERLY ISL    N/A     89  66  46 SW9         N/A  HX  91
$$

LMZ740>746-030000-
SOUTHERN LAKE MICHIGAN

STATION/POSITION SKY/WX   TEMP    WIND        PRES    VSBY  WAVE
                          AIR SEA DIR/SP/G                  HT/PER
                          (F)     (DEG/KT/KT) (MB)    (MI)  (FT/S)
HARRISON CRIB              87     220/ 23/ 29   N/A
BURNHAM HARBOR             90     200/ 13/ 24   N/A
CALUMET HARBOR             89     220/ 10/ 17   N/A
BURNS HARBOR               88     220/ 23/ 26 1005.4F
MICHIGAN CITY              86     200/ 26/ 33   N/A
MICHIGAN CITY 6N           83 74  240/ 17/ 25   N/A           4/ 4
ST. JOSEPH                 80 74  250/ 16/ 17   N/A           4/ 4
$$

ILZ025>027-034>036-040-047-049-050-058-095>099-030000-
WEST-CENTRAL ILLINOIS

CITY           SKY/WX    TMP DP  RH WIND       PRES   REMARKS
QUINCY         SUNNY     88  73  61 SW13      29.81F HX  95
GALESBURG*     SUNNY     87  73  62 SW18      29.76F HX  94
MACOMB*        SUNNY     88  73  60 SW12G21   29.80F HX  95
JACKSONVILLE*  SUNNY     90  72  55 SW9       29.82F HX  96
PITTSFIELD*    SUNNY     89  71  53 SW6       29.84F HX  95
$$

ILZ028>032-037-038-041>044-048-051>054-059>061-030000-
CENTRAL ILLINOIS

CITY           SKY/WX    TMP DP  RH WIND       PRES   REMARKS
PONTIAC        SUNNY     88  74  63 SW15G24   29.76F HX  97
BLOOMINGTON    SUNNY     88  73  60 SW17      29.81F HX  95
DECATUR        SUNNY     90  69  50 SW16G24   29.83F HX  94
PEORIA         MOSUNNY   91  70  49 SW16      29.77F HX  96
LACON*         MOSUNNY   88  69  54 SW12G22   29.73F HX  92
LINCOLN*       SUNNY     90  68  47 SW8       29.79F HX  94
SPRINGFIELD    SUNNY     88  70  55 SW8G17    29.82F HX  93
TAYLORVILLE    SUNNY     86  72  62 SW7       29.84F HX  92
$$

ILZ033-039-045-046-055>057-062-063-030000-
EAST-CENTRAL ILLINOIS

CITY           SKY/WX    TMP DP  RH WIND       PRES   REMARKS
CHAMPAIGN      MOSUNNY   87  70  56 SW13      29.83F HX  92
DANVILLE*      SUNNY     85  71  63 SW9G16    29.79F HX  90
RANTOUL*       MOSUNNY   89  72  56 SW14G23   29.81F HX  96
MATTOON        SUNNY     88  66  48 S8        29.84F HX  90
PARIS*         SUNNY     87  71  57 SW9       29.85F HX  92
$$

ILZ079-100>102-030000-
SOUTHWEST ILLINOIS

CITY           SKY/WX    TMP DP  RH WIND       PRES   REMARKS
BELLEVILLE     SUNNY     92  72  52 SW8       29.84F HX  99
CAHOKIA*       MOSUNNY   93  67  42 SW5       29.85F HX  96
SPARTA*        SUNNY     90  70  52 SW8       29.88F HX  95
$$

ILZ064>066-069>071-074>076-080>082-084>086-088>090-092>094-030000-
SOUTH-CENTRAL ILLINOIS

CITY           SKY/WX    TMP DP  RH WIND       PRES   REMARKS
CARBONDALE     SUNNY     88  72  58 S9        29.88F HX  94
CAIRO*         SUNNY     88  71  57 S5        29.89F HX  94
EFFINGHAM*     SUNNY     90  64  42 S9        29.87F HX  91
MARION         MOSUNNY   90  72  55 S9        29.90F HX  96
MT. VERNON     MOSUNNY   91  72  52 S12       29.88F HX  98
CENTRALIA*     MOSUNNY   89  69  53 SW9       29.87F HX  93
SALEM*         SUNNY     91  70  50 S9        29.87F HX  96
METROPOLIS*    SUNNY     88  74  63 CALM      29.91S HX  96
$$

ILZ067-068-072-073-078-083-087-091-030000-
SOUTHEAST ILLINOIS

CITY           SKY/WX    TMP DP  RH WIND       PRES   REMARKS
LAWRENCEVILLE  SUNNY     88  70  55 SW12      29.88F HX  93
FLORA*         SUNNY     89  69  52 SW7       29.87F HX  93
FAIRFIELD*     MOSUNNY   87  72  59 S9        29.87S HX  93
HARRISBURG*    SUNNY     88  72  59 S8        29.91S HX  94
ROBINSON*      SUNNY     87  72  61 S9        29.87F HX  92
CARMI*         MOSUNNY   85  69  58 S9        29.88F HX  89
$$

ABBREVIATIONS USED IN REMARKS
   TC - TEMPERATURE IN CELSIUS
  WCI - WIND CHILL INDEX
   HX - HEAT INDEX
  VSB - VISIBILITY
$$




USA.gov is the U.S. government's official web portal to all federal, state and local government web resources and services.